sat.trackr.live / text

‹ back to catalog

STARLINK-4403

NORAD 53197 · 2022-084J

PAYLOAD ACTIVE UNKNOWN

§ Identity

Operator
Country
US
Launch date
2022-07-22
Launch site
AFWTR
Launch vehicle
Mass (kg)
RCS (m²)

Purposes: comms

External: N2YO · Heavens-Above · Gunter

§ Orbital elements

Epoch: 2026-05-25T02:54:58.101120Z

Period
95.64 min
Inclination
97.4493°
Eccentricity
0.0001904
Mean motion
15.05650210 rev/d
Perigee alt
548.2 km
Apogee alt
550.8 km
Semi-major
6,927.6 km
B*
4.0865e-5
RAAN
205.0382°
Arg perigee
148.2420°
Mean anomaly
211.8922°
Rev number
21,080

§ Raw data

STARLINK-44031 53197U 22084J   26145.12150580  .00000531  00000+0  40865-4 0  99962 53197  97.4493 205.0382 0001904 148.2420 211.8922 15.05650210210809

JSON: /api/v1/satellites/53197 · /tle

For live sub-satellite position, see the globe view (requires WebGL).

§ Visibility from observer

Set your observer location to see the next 7 days of passes ≥ 10°. The values pass through the URL so the page stays shareable.

No JS? Fill the form by hand. The geolocation button needs JavaScript.